User: anonymous   Login
Location: Hancock Field Station
(44.9202°N, 120.4259°W)
Time: 13:56:45
(UTC-08:00)
Language:

Nadezhda 4 Rocket - Orbit

View from above orbital plane
View from above orbital plane
View from above satellite
View from above satellite

Ground track
Ground track

The orbit data is extracted from the following two-line orbital elements,

1 23180U 94041B   14329.19975801  .00000079  00000-0  64123-4 0  5735
2 23180 082.9466 266.7445 0028051 328.3615 141.3896 13.77852100 24146
Epoch (UTC): 25 November 2014 04:47:39
Eccentricity: 0.0028051
inclination: 82.9466°
perigee height: 951 km
apogee height: 992 km
right ascension of ascending node: 266.7445°
argument of perigee: 328.3615°
revolutions per day: 13.77852100
mean anomaly at epoch: 141.3896°
orbit number at epoch: 2414

The dashed part of the orbit path shows where the satellite is in the earth's shadow,  

DLR